Wind_Speed
48 49 50 49 49 48 47 47 46 45 46 46 46 45 45 45 44 44 43 42 42 41 41 40 40 39 38 38 36 35 34 34 33 32 31 31 31 30 30 30 30 30 30 30
47 48 47 48 48 48 47 47 47 46 45 46 47 46 45 45 44 44 43 43 42 42 41 41 40 40 39 38 37 36 36 35 34 33 32 32 32 31 31 31 31 31 31 31
46 45 46 48 49 48 48 46 45 46 45 46 47 47 46 45 45 44 43 43 42 41 41 41 41 40 39 38 38 37 37 36 35 34 34 33 33 32 32 32 32 32 32 33
45 46 46 47 48 47 47 45 45 45 45 46 47 48 47 46 45 44 43 43 42 42 41 41 41 40 39 39 38 38 37 37 36 35 35 34 34 34 34 34 34 34 34 34
45 45 46 47 46 46 45 44 44 45 45 46 47 48 47 46 45 44 43 42 42 42 41 41 41 40 40 39 39 39 38 37 37 36 36 35 35 35 35 36 36 35 36 36
44 44 45 45 45 45 44 44 43 44 46 48 47 47 47 45 44 43 43 42 42 42 42 41 41 41 40 40 40 39 39 38 37 37 37 37 36 36 36 37 37 37 37 37
43 44 44 44 44 45 44 45 45 45 47 49 47 47 46 44 43 42 42 42 42 42 42 42 41 41 41 41 40 40 40 39 39 38 38 38 37 37 37 37 38 38 38 38
41 42 43 43 44 43 43 45 45 46 47 47 47 47 45 43 42 42 42 42 42 42 42 42 42 42 42 42 41 41 40 40 39 39 39 39 39 39 38 38 38 38 38 39
39 40 41 43 43 42 42 43 43 44 45 46 46 45 44 43 42 42 42 42 42 42 43 42 42 42 42 42 42 41 41 41 40 40 40 40 39 39 39 39 39 39 40 40
36 38 40 41 42 43 43 42 42 43 44 44 45 44 42 41 40 40 41 41 41 41 42 42 42 43 43 43 43 43 42 42 41 41 41 41 40 41 41 40 40 41 41 41
34 36 37 40 41 41 42 42 43 43 43 43 44 44 42 40 40 39 39 40 41 41 42 42 42 43 43 44 44 44 43 43 43 42 42 42 41 41 41 41 41 41 42 42
32 34 36 38 38 38 40 41 41 42 42 43 43 42 40 39 39 38 38 39 40 41 42 42 42 42 43 44 44 45 44 44 43 43 43 42 42 42 42 41 42 42 43 44
29 31 34 37 37 37 39 39 40 41 42 42 42 41 39 38 38 37 37 38 38 39 41 41 42 42 43 43 44 44 44 44 44 44 43 43 43 42 42 43 43 43 44 45
27 29 33 36 38 37 38 38 38 39 41 41 41 40 39 38 37 37 37 37 37 37 38 39 41 42 43 43 43 44 44 44 44 44 44 43 43 43 43 43 44 44 45 46
26 28 30 32 34 34 35 36 37 38 38 39 39 38 38 38 37 37 37 36 37 37 37 37 38 40 41 43 43 44 44 45 45 44 44 44 44 44 44 44 44 45 46 46
26 27 29 30 31 32 33 35 36 36 37 37 37 37 36 37 37 37 36 36 35 36 36 36 37 38 39 40 42 43 43 44 45 45 44 44 44 44 45 45 45 46 46 46
26 26 27 29 31 32 33 33 34 35 35 36 36 36 35 36 36 36 36 36 35 36 36 36 36 37 38 39 40 41 42 43 44 45 45 45 45 45 45 46 46 46 46 46
24 26 27 26 28 31 32 31 32 33 34 35 35 35 36 36 36 36 36 36 36 36 36 36 36 37 38 39 39 40 41 42 43 44 44 45 45 45 45 45 46 46 46 46
23 24 26 26 26 28 30 31 31 32 34 35 34 34 35 35 35 35 36 36 36 36 36 37 37 37 38 38 39 39 40 41 42 43 43 44 44 44 45 45 45 45 45 46
22 24 25 27 27 27 28 30 31 31 31 33 34 34 34 34 34 34 34 35 35 36 37 37 37 38 38 38 39 40 40 41 41 42 42 43 43 44 44 45 45 45 45 45
22 23 24 26 27 27 27 28 30 31 30 31 32 33 34 34 34 33 33 33 34 34 36 37 37 37 38 39 40 40 40 41 42 42 42 42 42 43 43 44 44 45 45 45
21 22 24 25 26 27 26 27 28 29 29 30 31 31 32 33 33 33 33 33 33 33 34 35 36 37 37 38 39 40 40 41 42 42 41 42 42 43 43 43 43 44 44 45
20 22 23 24 25 25 26 27 27 28 28 28 28 28 30 31 32 32 33 33 33 33 33 33 34 35 36 37 38 39 40 40 41 41 41 41 41 41 41 41 41 42 42 43
20 21 22 23 24 25 25 26 27 28 29 29 28 28 28 29 30 31 31 32 33 33 33 34 34 34 35 36 37 38 39 40 40 40 40 40 40 40 41 41 41 41 41 41
20 20 21 21 23 24 25 26 26 28 29 30 30 29 29 29 29 29 30 31 31 32 33 34 34 35 35 35 36 37 37 38 39 39 39 40 40 40 40 40 40 40 40 40
17 18 20 21 22 23 23 25 25 26 28 30 31 30 30 30 30 30 30 30 31 31 32 33 33 34 35 35 35 35 36 36 37 38 39 39 40 40 40 40 40 40 40 40
Wind_Direction
222 221 222 222 223 224 225 226 225 225 225 227 227 226 226 226 227 228 229 230 230 231 232 232 233 234 235 237 238 240 241 243 245 246 248 250 252 254 257 260 262 265 267 269
221 221 222 222 222 223 223 224 224 224 225 227 227 226 226 226 227 228 229 230 230 231 232 232 233 234 234 236 237 239 240 243 245 246 248 250 253 255 258 261 263 266 267 269
220 221 220 221 221 221 222 223 225 225 226 227 227 226 225 226 227 228 229 230 230 231 231 232 233 233 234 235 236 238 241 243 245 247 249 251 254 257 259 262 264 266 267 269
218 218 219 220 222 222 223 223 225 226 226 227 227 227 225 226 227 228 228 229 230 230 231 231 232 232 233 234 236 238 241 243 245 247 250 252 255 257 260 262 264 266 268 270
217 217 218 220 220 222 223 224 226 227 227 228 227 229 226 226 227 228 229 229 230 230 230 231 232 232 233 234 236 238 241 243 245 248 250 253 255 258 260 262 264 267 269 271
217 217 218 218 219 221 222 223 225 227 228 229 227 230 229 227 228 228 228 229 230 230 230 231 232 233 234 235 236 239 241 243 246 248 251 253 256 258 261 263 265 267 269 271
214 216 216 217 218 220 222 223 224 226 227 229 228 231 230 227 226 227 228 229 230 230 231 231 232 234 235 235 237 239 242 244 246 249 251 254 256 259 261 263 265 267 269 271
214 214 215 216 218 220 223 224 225 227 229 230 230 231 230 229 227 227 228 230 230 231 231 232 233 234 235 236 237 239 242 245 247 249 251 254 257 259 261 263 265 267 269 272
214 214 214 217 218 221 222 223 224 228 231 233 232 232 231 230 229 229 229 230 231 231 231 232 232 234 235 237 239 240 242 244 247 249 251 254 257 259 261 262 265 267 270 272
216 216 216 217 218 220 221 223 224 227 230 233 234 233 233 231 231 231 232 232 232 233 233 233 234 234 236 237 239 240 242 244 247 250 252 254 257 259 261 263 265 267 270 273
216 217 217 216 218 220 219 222 224 227 229 232 234 235 234 234 233 233 233 234 235 235 234 234 235 236 237 238 239 240 242 244 247 249 252 255 258 260 261 263 266 268 271 273
215 217 218 218 219 221 221 222 224 226 228 231 234 236 235 235 235 235 235 235 236 236 235 235 235 235 237 238 240 241 243 245 247 250 252 255 257 259 261 263 266 269 271 273
216 217 217 219 220 220 221 222 225 228 231 233 234 235 233 234 234 235 235 236 237 237 237 237 236 236 237 238 240 242 243 245 248 250 253 254 256 259 262 264 266 269 272 274
217 219 219 221 223 223 223 224 226 228 230 232 234 235 235 235 235 235 236 236 237 237 237 238 238 238 239 239 241 242 243 245 248 250 252 254 256 259 262 264 267 270 272 275
216 219 220 220 221 224 226 225 227 229 231 233 233 235 235 236 236 237 237 238 238 237 238 238 239 240 240 241 242 244 245 246 248 250 252 255 257 259 261 264 267 270 273 275
220 222 222 223 223 225 225 225 227 228 230 232 233 233 235 236 237 238 239 239 239 238 238 239 240 241 242 242 243 245 246 248 249 251 253 255 257 260 262 265 268 271 273 275
225 225 224 224 225 228 228 226 228 229 230 232 233 234 234 235 237 239 240 240 240 240 239 240 241 241 242 243 244 245 247 249 251 253 254 256 258 261 263 266 268 270 272 274
226 225 224 224 224 228 228 226 227 229 229 231 234 235 236 237 237 238 240 241 241 240 240 240 241 242 242 243 244 245 248 250 252 254 256 258 260 262 264 266 268 270 272 274
222 222 223 225 227 228 227 227 227 228 229 231 233 235 236 238 238 239 241 242 242 241 240 240 240 241 242 243 245 246 248 250 252 254 256 258 261 263 265 267 268 269 271 274
223 224 226 226 229 230 229 230 229 230 231 232 234 236 237 238 239 240 242 243 243 242 241 241 242 242 243 244 246 248 250 252 253 255 257 259 261 263 265 267 268 270 272 274
228 228 228 229 230 231 231 231 230 231 232 233 235 236 237 238 239 240 241 243 243 243 243 243 243 244 245 246 247 248 251 253 254 256 258 260 262 264 267 268 270 272 274 275
229 230 231 231 231 231 232 233 234 234 234 235 235 235 236 237 238 240 241 242 243 244 244 244 245 246 247 248 249 250 252 253 255 256 258 260 262 265 267 269 270 272 274 276
232 232 232 232 232 232 233 234 235 235 234 234 233 233 234 234 236 238 240 242 243 244 245 246 248 249 249 250 251 253 253 254 255 256 259 261 264 267 268 270 271 272 275 277
236 235 234 234 235 235 237 236 236 235 234 233 233 234 234 234 234 235 237 239 241 242 244 246 248 249 251 252 253 254 255 255 256 257 259 262 265 267 269 270 271 272 274 277
238 237 237 238 239 240 240 240 239 237 237 236 236 236 235 235 235 236 237 239 240 242 244 246 248 250 252 253 254 254 255 256 257 260 262 265 266 267 269 270 272 273 274 276
239 238 237 238 239 240 241 241 241 239 238 238 238 238 237 237 237 238 239 241 243 244 246 248 249 251 252 254 255 255 256 257 259 260 262 265 266 267 268 270 272 273 275 277
Height
5631 5638 5645 5655 5663 5670 5676 5682 5688 5694 5699 5705 5710 5716 5721 5725 5731 5736 5741 5746 5751 5755 5759 5762 5766 5770 5773 5777 5780 5783 5786 5788 5791 5793 5794 5796 5797 5798 5799 5800 5800 5801 5801 5801
5623 5630 5640 5647 5653 5659 5666 5672 5679 5685 5690 5696 5701 5707 5712 5717 5723 5728 5733 5738 5742 5747 5751 5755 5758 5762 5766 5770 5773 5776 5779 5782 5784 5786 5788 5789 5790 5792 5793 5793 5794 5794 5794 5794
5615 5625 5631 5637 5643 5650 5657 5664 5671 5676 5681 5686 5691 5697 5703 5709 5714 5719 5724 5729 5734 5739 5743 5747 5751 5754 5758 5762 5766 5769 5772 5774 5777 5779 5781 5782 5784 5785 5786 5787 5787 5787 5787 5787
5605 5613 5621 5627 5635 5642 5649 5656 5662 5667 5672 5676 5682 5687 5695 5700 5705 5711 5716 5721 5726 5730 5734 5738 5743 5747 5751 5755 5758 5761 5764 5767 5769 5772 5773 5775 5777 5778 5779 5779 5780 5780 5780 5780
5597 5604 5611 5619 5628 5634 5642 5648 5653 5658 5663 5667 5673 5678 5686 5691 5697 5703 5708 5713 5717 5722 5726 5730 5735 5739 5743 5747 5750 5753 5756 5759 5762 5764 5766 5768 5769 5770 5771 5772 5772 5772 5772 5772
5589 5596 5604 5612 5620 5626 5633 5639 5644 5648 5652 5657 5665 5669 5676 5684 5690 5696 5701 5705 5709 5714 5718 5722 5726 5730 5735 5738 5742 5745 5748 5751 5754 5756 5758 5760 5761 5762 5763 5764 5764 5764 5764 5764
5581 5588 5595 5603 5610 5617 5623 5629 5634 5638 5641 5648 5656 5660 5668 5676 5682 5687 5692 5697 5701 5705 5709 5714 5718 5722 5726 5730 5734 5737 5740 5743 5746 5748 5750 5752 5753 5754 5755 5755 5756 5756 5756 5756
5575 5582 5588 5596 5602 5609 5615 5621 5627 5631 5636 5642 5647 5651 5661 5667 5673 5678 5683 5688 5692 5696 5701 5705 5709 5714 5718 5721 5725 5729 5732 5735 5737 5739 5741 5743 5744 5745 5746 5747 5747 5747 5747 5747
5569 5576 5582 5589 5595 5602 5606 5612 5619 5625 5629 5634 5638 5645 5653 5658 5664 5670 5674 5679 5683 5687 5692 5696 5701 5705 5709 5713 5717 5720 5723 5726 5728 5730 5732 5734 5735 5737 5737 5738 5738 5738 5738 5738
5563 5569 5575 5581 5587 5593 5600 5605 5610 5615 5620 5625 5631 5637 5645 5650 5656 5661 5666 5670 5674 5678 5683 5687 5691 5696 5700 5704 5707 5711 5714 5717 5719 5721 5723 5725 5726 5727 5728 5729 5729 5729 5729 5728
5557 5563 5569 5574 5579 5585 5592 5597 5602 5607 5613 5618 5624 5632 5637 5643 5648 5653 5657 5661 5665 5669 5674 5678 5682 5686 5690 5694 5698 5701 5705 5707 5710 5712 5714 5716 5717 5718 5719 5719 5720 5720 5719 5718
5551 5557 5562 5568 5573 5579 5584 5590 5596 5601 5606 5611 5617 5626 5629 5634 5639 5643 5648 5652 5656 5660 5664 5669 5673 5677 5680 5684 5688 5691 5695 5698 5700 5702 5704 5706 5707 5708 5709 5710 5710 5710 5709 5708
5546 5550 5556 5561 5567 5571 5576 5582 5588 5593 5598 5603 5609 5617 5621 5625 5630 5634 5639 5643 5647 5651 5655 5659 5663 5667 5671 5674 5678 5681 5684 5687 5690 5692 5694 5696 5697 5698 5699 5700 5700 5700 5699 5698
5540 5545 5551 5556 5560 5566 5570 5576 5580 5585 5589 5595 5601 5608 5613 5617 5621 5626 5630 5634 5638 5642 5646 5650 5654 5657 5661 5664 5668 5671 5674 5677 5679 5682 5684 5686 5687 5688 5689 5689 5689 5689 5688 5687
5535 5540 5544 5549 5555 5559 5564 5569 5573 5578 5583 5588 5594 5599 5605 5609 5613 5617 5621 5625 5629 5633 5637 5641 5645 5648 5651 5655 5658 5661 5664 5666 5669 5671 5673 5675 5677 5678 5678 5679 5679 5678 5677 5676
5530 5535 5539 5544 5548 5552 5556 5561 5565 5570 5576 5581 5586 5591 5596 5600 5604 5608 5612 5617 5621 5625 5629 5632 5635 5639 5642 5645 5648 5651 5653 5656 5658 5661 5663 5664 5666 5667 5667 5668 5667 5667 5666 5665
5526 5530 5534 5538 5542 5545 5550 5555 5559 5564 5569 5574 5578 5585 5588 5592 5596 5600 5604 5608 5612 5616 5620 5623 5626 5629 5632 5635 5638 5641 5643 5646 5648 5650 5651 5653 5655 5656 5656 5656 5656 5655 5655 5653
5521 5525 5528 5532 5536 5540 5546 5549 5553 5558 5562 5566 5571 5576 5580 5584 5588 5591 5595 5599 5602 5606 5610 5614 5617 5620 5623 5626 5628 5631 5633 5635 5637 5639 5640 5642 5643 5644 5645 5645 5645 5644 5643 5642
5516 5520 5523 5526 5529 5533 5539 5542 5546 5551 5555 5559 5563 5568 5572 5575 5579 5583 5586 5590 5593 5597 5601 5604 5607 5610 5613 5616 5618 5621 5623 5625 5626 5628 5630 5631 5632 5633 5633 5633 5633 5632 5631 5630
5511 5514 5518 5521 5524 5528 5533 5536 5540 5544 5548 5552 5556 5560 5563 5567 5571 5576 5578 5581 5585 5588 5591 5594 5598 5601 5603 5606 5608 5611 5612 5614 5616 5617 5619 5620 5621 5621 5622 5622 5621 5621 5620 5619
5507 5509 5512 5515 5518 5522 5526 5529 5533 5539 5542 5545 5548 5551 5555 5559 5563 5567 5570 5573 5576 5579 5582 5585 5588 5590 5593 5596 5598 5600 5602 5604 5605 5607 5608 5609 5610 5610 5610 5610 5610 5609 5608 5607
5502 5504 5507 5510 5513 5519 5520 5523 5527 5531 5534 5537 5540 5543 5547 5551 5555 5558 5561 5564 5567 5570 5573 5575 5578 5580 5583 5585 5588 5589 5591 5593 5595 5596 5597 5598 5598 5599 5599 5599 5598 5597 5597 5596
5497 5500 5502 5505 5509 5511 5513 5516 5520 5523 5526 5529 5533 5536 5539 5543 5546 5550 5553 5556 5559 5561 5564 5566 5569 5571 5573 5575 5577 5579 5581 5582 5583 5585 5586 5587 5587 5587 5587 5587 5586 5586 5585 5584
5492 5494 5496 5499 5502 5504 5507 5509 5512 5516 5519 5522 5525 5529 5532 5535 5539 5542 5545 5547 5550 5553 5555 5558 5560 5562 5564 5565 5567 5569 5570 5571 5573 5574 5575 5575 5576 5576 5576 5575 5575 5574 5573 5572
5487 5489 5491 5493 5496 5498 5500 5503 5505 5508 5512 5515 5518 5521 5525 5528 5531 5534 5536 5539 5542 5544 5547 5549 5550 5552 5554 5555 5557 5558 5560 5561 5562 5563 5564 5564 5565 5565 5565 5564 5564 5563 5562 5561
5481 5484 5486 5488 5490 5492 5494 5496 5498 5501 5504 5507 5510 5514 5517 5520 5523 5526 5528 5531 5533 5535 5538 5539 5541 5543 5544 5546 5547 5548 5549 5551 5552 5553 5553 5553 5554 5554 5554 5553 5553 5552 5551 5550